[[{"header":{"parameterUnit":"m.s-1","parameterCategory":1,"la1":30.2992,"la2":30.254,"lo1":-89.0895,"lo2":-89.0443,"dy":0.0025,"dx":0.0025,"nx":19,"ny":19,"refTime":"2026-03-26T03:00:00:Z","depth":0,"parameterNumber":2,"parameterNumberName":"U-component_of_WINDS"},"data":[0,0,0,-3.3101,-3.3102,-3.3152,-3.3152,-3.3237,-3.3238,0,0,0,0,0,0,0,0,0,0,0,-3.3098,-3.3099,-3.3101,-3.3102,-3.3152,-3.3152,-3.3237,-3.3238,0,0,0,0,0,0,0,0,0,0,0,-3.3098,-3.3099,-3.31,-3.3102,-3.3152,-3.3152,-3.3237,-3.3192,0,0,0,0,0,0,0,0,0,0,-3.314,-3.3149,-3.3099,-3.31,-3.3103,-3.3152,-3.3152,-3.3189,-3.3194,-3.3224,0,-3.3252,0,-3.3247,-3.3245,-3.3245,0,0,0,-3.3093,-3.3145,-3.3147,-3.31,-3.3103,-3.3152,-3.3127,-3.3192,-3.3198,-3.3231,-3.3253,-3.3256,-3.3248,-3.3246,-3.3246,-3.3444,-3.3446,0,0,-3.309,-3.3114,-3.3143,-3.3152,-3.3144,-3.3125,-3.3128,-3.3195,-3.3221,-3.3253,-3.3257,-3.3249,-3.3246,-3.3247,-3.3443,-3.3445,0,0,0,-3.3089,-3.3112,-3.3112,-3.3149,-3.3156,-3.3127,-3.313,-3.3218,-3.3216,-3.3258,-3.325,-3.3247,-3.3248,-3.3441,-3.3444,-3.3532,0,0,0,-3.3086,-3.3111,-3.3112,-3.3126,-3.3155,-3.3187,-3.3152,-3.3212,-3.3218,-3.325,-3.3247,-3.3249,-3.344,-3.3443,-3.3526,-3.3569,0,0,0,-3.3091,-3.3111,-3.3123,-3.3128,-3.315,-3.3186,-3.3187,-3.3212,-3.3214,-3.3245,-3.325,-3.3439,-3.3442,-3.3521,-3.3561,-3.3628,0,0,0,-3.3102,-3.32,-3.3124,-3.3232,-3.315,-3.3241,-3.3187,-3.3253,-3.3291,-3.3247,-3.344,-3.3443,-3.352,-3.3556,-3.3623,-3.3688,-3.3717,0,0,-3.3239,-3.3218,-3.3279,-3.3213,-3.3323,-3.3231,-3.3355,-3.3367,-3.3349,-3.3414,-3.3418,-3.3528,-3.356,-3.3627,-3.3877,-3.3901,0,0,0,-3.333,-3.3375,-3.3399,-3.3436,-3.3448,-3.3462,-3.3454,-3.3459,-3.3513,-3.3387,-3.3571,-3.3589,-3.3627,-3.3657,-3.3677,-3.3708,-3.3459,-3.3458,-3.3458,-3.3555,-3.3528,-3.3628,-3.3608,-3.3645,-3.3636,-3.3664,-3.3669,-3.363,-3.3674,-3.3692,-3.3847,-3.3883,-3.3898,-3.3931,-3.3726,-3.3726,-3.3726,-3.3727,-3.3753,-3.3811,-3.3759,-3.3837,-3.3809,-3.3874,-3.3872,-3.3842,-3.39,-3.3831,-3.3863,-3.3788,-3.3925,-3.3952,-3.3733,-3.3732,-3.3731,-3.3731,-3.373,-3.3895,-3.3919,-3.3924,-3.3976,-3.402,-3.3997,-3.4055,-3.4027,-3.4001,-3.4034,-3.405,-3.4048,-3.4043,-3.4044,-3.4045,-3.4045,-3.4046,-3.4046,-3.4046,-3.4041,-3.4044,-3.4096,-3.412,-3.4141,-3.4166,-3.4161,-3.4182,-3.4197,-3.4172,-3.4172,-3.4129,-3.3944,-3.3897,-3.4054,-3.4053,-3.4052,-3.4051,-3.4051,-3.4248,-3.4197,-3.4278,-3.4299,-3.4326,-3.4372,-3.4337,-3.4382,-3.4395,-3.4425,-3.4377,-3.4245,-3.4221,-3.4205,-3.4165,-3.4383,-3.4383,-3.4383,-3.4383,-3.4367,-3.4353,-3.443,-3.4467,-3.45,-3.4477,-3.4571,-3.457,-3.456,-3.4567,-3.4532,-3.4479,-3.4464,-3.4449,-3.4427,-3.439,-3.466,-3.466,-3.466,-3.4493,-3.4481,-3.4565,-3.4555,-3.4575,-3.4594,-3.4681,-3.4726,-3.4705,-3.4671,-3.4572,-3.456,-3.4474,-3.4447,-3.4408,-3.4375,-3.4306,0,0]},{"header":{"parameterUnit":"m.s-1","parameterCategory":1,"la1":30.2992,"la2":30.254,"lo1":-89.0895,"lo2":-89.0443,"dy":0.0025,"dx":0.0025,"nx":19,"ny":19,"refTime":"2026-03-26T03:00:00:Z","depth":0,"parameterNumber":3,"parameterNumberName":"V-component_of_WINDS"},"data":[0,0,0,3.6484,3.6485,3.654,3.654,3.6598,3.6598,0,0,0,0,0,0,0,0,0,0,0,3.6462,3.6462,3.6484,3.6485,3.6539,3.654,3.6598,3.6598,0,0,0,0,0,0,0,0,0,0,0,3.6462,3.6462,3.6462,3.6485,3.6539,3.654,3.6598,3.656,0,0,0,0,0,0,0,0,0,0,3.6509,3.6483,3.6462,3.6462,3.6485,3.6539,3.654,3.6558,3.6562,3.6568,0,3.6574,0,3.6587,3.6601,3.6602,0,0,0,3.6488,3.648,3.65,3.6462,3.6486,3.6539,3.6516,3.6561,3.6565,3.6574,3.6574,3.6577,3.6588,3.6602,3.6602,3.6629,3.6629,0,0,3.6485,3.6468,3.6497,3.6503,3.6496,3.6514,3.6517,3.6564,3.6563,3.6575,3.6578,3.6589,3.6602,3.6602,3.6629,3.6629,0,0,0,3.6474,3.6465,3.6485,3.65,3.6511,3.6516,3.652,3.6561,3.6569,3.6579,3.659,3.6602,3.6603,3.6629,3.6629,3.661,0,0,0,3.6473,3.6459,3.6483,3.6473,3.651,3.6537,3.6515,3.6565,3.6571,3.6589,3.6602,3.6603,3.6629,3.6629,3.6611,3.6604,0,0,0,3.646,3.6458,3.6464,3.6472,3.6495,3.6537,3.6547,3.6567,3.6577,3.6602,3.6604,3.6629,3.6629,3.6612,3.6605,3.6607,0,0,0,3.6441,3.6445,3.6463,3.6472,3.6495,3.6526,3.6547,3.657,3.6589,3.6603,3.6629,3.6629,3.6612,3.6606,3.6607,3.6605,3.6602,0,0,3.6436,3.6444,3.6451,3.6469,3.6492,3.6518,3.6539,3.6571,3.6588,3.6614,3.6615,3.6611,3.6605,3.6607,3.6594,3.6592,0,0,0,3.6443,3.6448,3.6458,3.6476,3.6503,3.6525,3.6557,3.6569,3.6592,3.6598,3.6612,3.6609,3.6611,3.6611,3.6609,3.6611,3.6628,3.6628,3.6628,3.641,3.6435,3.6448,3.6479,3.6496,3.653,3.6546,3.6568,3.6585,3.6588,3.6595,3.6585,3.6584,3.6583,3.6586,3.6596,3.6596,3.6596,3.6596,3.6406,3.6416,3.6442,3.6464,3.6489,3.6507,3.654,3.6552,3.6571,3.6581,3.6584,3.6592,3.658,3.6584,3.6595,3.6595,3.6595,3.6595,3.6596,3.6387,3.6396,3.6413,3.6443,3.6464,3.6494,3.6513,3.6534,3.6555,3.6557,3.6568,3.6568,3.6571,3.6561,3.6561,3.6561,3.6561,3.6561,3.6561,3.6361,3.638,3.6394,3.6425,3.644,3.6463,3.6498,3.6513,3.6536,3.655,3.655,3.6567,3.6575,3.6576,3.656,3.656,3.6561,3.6561,3.6561,3.6347,3.6354,3.6376,3.6391,3.6429,3.6448,3.6477,3.6506,3.6522,3.653,3.6547,3.655,3.6558,3.656,3.6561,3.6542,3.6542,3.6542,3.6542,3.6331,3.6338,3.6366,3.639,3.6416,3.6444,3.6467,3.6495,3.6524,3.6535,3.6541,3.6545,3.6546,3.6554,3.6555,3.6557,3.6537,3.6537,3.6537,3.6324,3.6335,3.6351,3.6382,3.6414,3.644,3.6463,3.6488,3.6522,3.6537,3.6544,3.6544,3.6551,3.6552,3.6566,3.6568,3.6572,0,0]}]]